Time,TemperatureF,DewpointF,PressureIn,WindDirection,WindDirectionDegrees,WindSpeedMPH,WindSpeedGustMPH,Humidity,HourlyPrecipIn,Conditions,Clouds,dailyrainin,SoftwareType,DateUTC
2013-10-27 00:09:00,51.4,42.0,30.00,WSW,238,6.0,12.0,71,0.00,,,0.00,weatherlink.com 1.10,2013-10-27 04:09:00,
2013-10-27 00:24:00,51.5,43.0,30.00,NW,311,2.0,10.0,72,0.00,,,0.00,weatherlink.com 1.10,2013-10-27 04:24:00,
2013-10-27 00:39:00,51.1,43.0,30.01,North,351,1.0,8.0,74,0.00,,,0.00,weatherlink.com 1.10,2013-10-27 04:39:00,
2013-10-27 00:54:00,50.4,43.0,30.01,SE,133,2.0,6.0,75,0.00,,,0.00,weatherlink.com 1.10,2013-10-27 04:54:00,
2013-10-27 01:09:00,49.5,43.0,30.02,WSW,243,0.0,4.0,78,0.00,,,0.00,weatherlink.com 1.10,2013-10-27 05:09:00,
2013-10-27 01:24:00,48.8,42.0,30.01,West,259,2.0,9.0,76,0.00,,,0.00,weatherlink.com 1.10,2013-10-27 05:24:00,
2013-10-27 01:39:00,47.9,40.0,30.01,West,281,1.0,10.0,75,0.00,,,0.00,weatherlink.com 1.10,2013-10-27 05:39:00,
2013-10-27 01:54:00,47.1,40.0,30.00,WSW,238,7.0,7.0,75,0.00,,,0.00,weatherlink.com 1.10,2013-10-27 05:54:00,
2013-10-27 02:09:00,46.4,39.0,30.01,ESE,109,3.0,10.0,75,0.00,,,0.00,weatherlink.com 1.10,2013-10-27 06:09:00,
2013-10-27 02:24:00,45.7,38.0,30.01,West,262,1.0,12.0,75,0.00,,,0.00,weatherlink.com 1.10,2013-10-27 06:24:00,
2013-10-27 02:40:00,45.3,38.0,30.01,NNW,343,1.0,9.0,75,0.00,,,0.00,weatherlink.com 1.10,2013-10-27 06:40:00,
2013-10-27 02:55:00,44.9,37.0,30.00,WSW,249,1.0,7.0,75,0.00,,,0.00,weatherlink.com 1.10,2013-10-27 06:55:00,
2013-10-27 03:10:00,44.7,37.0,30.00,SSE,152,1.0,7.0,75,0.00,,,0.00,weatherlink.com 1.10,2013-10-27 07:10:00,
2013-10-27 03:25:00,44.4,37.0,30.00,NNE,20,3.0,6.0,76,0.00,,,0.00,weatherlink.com 1.10,2013-10-27 07:25:00,
2013-10-27 03:40:00,44.1,37.0,30.00,ENE,71,5.0,9.0,76,0.00,,,0.00,weatherlink.com 1.10,2013-10-27 07:40:00,
2013-10-27 03:55:00,44.0,37.0,29.99,SE,144,2.0,6.0,76,0.00,,,0.00,weatherlink.com 1.10,2013-10-27 07:55:00,
2013-10-27 04:10:00,44.0,37.0,29.99,SSE,150,1.0,6.0,77,0.00,,,0.00,weatherlink.com 1.10,2013-10-27 08:10:00,
2013-10-27 04:25:00,43.9,37.0,29.99,SW,231,0.0,7.0,76,0.00,,,0.00,weatherlink.com 1.10,2013-10-27 08:25:00,
2013-10-27 04:40:00,43.7,37.0,29.99,NNE,17,0.0,5.0,76,0.00,,,0.00,weatherlink.com 1.10,2013-10-27 08:40:00,
2013-10-27 04:55:00,43.7,36.0,29.99,NNW,345,1.0,16.0,75,0.00,,,0.00,weatherlink.com 1.10,2013-10-27 08:55:00,
2013-10-27 05:10:00,43.6,37.0,29.99,West,271,1.0,6.0,76,0.00,,,0.00,weatherlink.com 1.10,2013-10-27 09:10:00,
2013-10-27 05:25:00,43.5,36.0,30.00,WSW,245,0.0,6.0,76,0.00,,,0.00,weatherlink.com 1.10,2013-10-27 09:25:00,
2013-10-27 05:40:00,43.5,36.0,30.00,North,353,0.0,8.0,76,0.00,,,0.00,weatherlink.com 1.10,2013-10-27 09:40:00,
2013-10-27 05:55:00,43.5,36.0,29.99,SW,226,4.0,9.0,76,0.00,,,0.00,weatherlink.com 1.10,2013-10-27 09:55:00,
2013-10-27 06:10:00,43.5,37.0,29.99,SW,222,1.0,7.0,77,0.00,,,0.00,weatherlink.com 1.10,2013-10-27 10:10:00,
2013-10-27 06:25:00,43.7,37.0,30.00,East,95,0.0,11.0,76,0.00,,,0.00,weatherlink.com 1.10,2013-10-27 10:25:00,
2013-10-27 06:40:00,43.6,37.0,30.00,WSW,241,0.0,7.0,77,0.00,,,0.00,weatherlink.com 1.10,2013-10-27 10:40:00,
2013-10-27 06:55:00,43.7,37.0,30.00,NNE,27,0.0,5.0,77,0.00,,,0.00,weatherlink.com 1.10,2013-10-27 10:55:00,
2013-10-27 07:10:00,43.5,37.0,30.01,West,271,1.0,7.0,77,0.00,,,0.00,weatherlink.com 1.10,2013-10-27 11:10:00,
2013-10-27 07:25:00,43.6,37.0,30.01,WNW,296,1.0,5.0,78,0.00,,,0.00,weatherlink.com 1.10,2013-10-27 11:25:00,
2013-10-27 07:40:00,43.5,37.0,30.01,North,6,2.0,4.0,78,0.00,,,0.00,weatherlink.com 1.10,2013-10-27 11:40:00,
2013-10-27 07:55:00,43.2,37.0,30.02,SSE,158,0.0,5.0,79,0.00,,,0.00,weatherlink.com 1.10,2013-10-27 11:55:00,
2013-10-27 08:10:00,44.3,38.0,30.02,SW,215,0.0,5.0,79,0.00,,,0.00,weatherlink.com 1.10,2013-10-27 12:10:00,
2013-10-27 08:25:00,44.9,38.0,30.03,SSW,212,2.0,11.0,78,0.00,,,0.00,weatherlink.com 1.10,2013-10-27 12:25:00,
2013-10-27 08:40:00,46.0,39.0,30.04,SW,233,0.0,10.0,76,0.00,,,0.00,weatherlink.com 1.10,2013-10-27 12:40:00,
2013-10-27 08:55:00,46.9,39.0,30.04,SW,224,1.0,6.0,75,0.00,,,0.00,weatherlink.com 1.10,2013-10-27 12:55:00,
2013-10-27 09:10:00,47.7,40.0,30.04,East,91,1.0,6.0,74,0.00,,,0.00,weatherlink.com 1.10,2013-10-27 13:10:00,
2013-10-27 09:25:00,48.7,40.0,30.05,WSW,252,0.0,4.0,72,0.00,,,0.00,weatherlink.com 1.10,2013-10-27 13:25:00,
2013-10-27 09:40:00,50.9,41.0,30.05,WSW,240,1.0,11.0,68,0.00,,,0.00,weatherlink.com 1.10,2013-10-27 13:40:00,
2013-10-27 09:55:00,52.9,41.0,30.05,NNE,26,0.0,6.0,65,0.00,,,0.00,weatherlink.com 1.10,2013-10-27 13:55:00,
2013-10-27 10:10:00,54.1,42.0,30.06,SW,231,1.0,8.0,63,0.00,,,0.00,weatherlink.com 1.10,2013-10-27 14:10:00,
2013-10-27 10:25:00,55.5,42.0,30.06,South,183,1.0,7.0,61,0.00,,,0.00,weatherlink.com 1.10,2013-10-27 14:25:00,
2013-10-27 10:40:00,56.8,44.0,30.05,NE,55,1.0,8.0,63,0.00,,,0.00,weatherlink.com 1.10,2013-10-27 14:40:00,
2013-10-27 10:56:00,56.9,42.0,30.06,SE,127,0.0,5.0,59,0.00,,,0.00,weatherlink.com 1.10,2013-10-27 14:56:00,
2013-10-27 11:11:00,54.9,42.0,30.06,North,353,0.0,4.0,63,0.00,,,0.00,weatherlink.com 1.10,2013-10-27 15:11:00,
2013-10-27 11:26:00,54.6,43.0,30.06,NW,325,2.0,6.0,64,0.00,,,0.00,weatherlink.com 1.10,2013-10-27 15:26:00,
2013-10-27 11:41:00,55.4,43.0,30.07,SSW,204,0.0,6.0,63,0.00,,,0.00,weatherlink.com 1.10,2013-10-27 15:41:00,
2013-10-27 11:56:00,56.2,43.0,30.07,SW,234,1.0,11.0,61,0.00,,,0.00,weatherlink.com 1.10,2013-10-27 15:56:00,
2013-10-27 12:11:00,56.3,43.0,30.07,NNW,334,2.0,10.0,61,0.00,,,0.00,weatherlink.com 1.10,2013-10-27 16:11:00,
2013-10-27 12:26:00,56.7,43.0,30.08,South,191,6.0,7.0,60,0.00,,,0.00,weatherlink.com 1.10,2013-10-27 16:26:00,
2013-10-27 12:41:00,56.9,42.0,30.07,SW,226,2.0,10.0,59,0.00,,,0.00,weatherlink.com 1.10,2013-10-27 16:41:00,
2013-10-27 12:56:00,57.0,43.0,30.07,SW,219,2.0,8.0,60,0.00,,,0.00,weatherlink.com 1.10,2013-10-27 16:56:00,
2013-10-27 13:11:00,58.9,44.0,30.07,NNE,24,6.0,13.0,58,0.00,,,0.00,weatherlink.com 1.10,2013-10-27 17:11:00,
2013-10-27 13:26:00,59.4,43.0,30.06,SW,236,4.0,11.0,55,0.00,,,0.00,weatherlink.com 1.10,2013-10-27 17:26:00,
2013-10-27 13:41:00,59.9,43.0,30.05,SW,225,0.0,10.0,55,0.00,,,0.00,weatherlink.com 1.10,2013-10-27 17:41:00,
2013-10-27 13:56:00,60.9,45.0,30.05,SW,227,4.0,6.0,56,0.00,,,0.00,weatherlink.com 1.10,2013-10-27 17:56:00,
2013-10-27 14:11:00,60.6,44.0,30.04,SSE,147,7.0,12.0,55,0.00,,,0.00,weatherlink.com 1.10,2013-10-27 18:11:00,
2013-10-27 14:26:00,61.1,44.0,30.04,ENE,67,1.0,14.0,53,0.00,,,0.00,weatherlink.com 1.10,2013-10-27 18:26:00,
2013-10-27 14:41:00,60.9,44.0,30.04,West,274,1.0,16.0,55,0.00,,,0.00,weatherlink.com 1.10,2013-10-27 18:41:00,
2013-10-27 14:56:00,61.2,45.0,30.04,NNE,32,4.0,15.0,56,0.00,,,0.00,weatherlink.com 1.10,2013-10-27 18:56:00,
2013-10-27 15:11:00,61.3,44.0,30.03,WSW,255,1.0,7.0,54,0.00,,,0.00,weatherlink.com 1.10,2013-10-27 19:11:00,
2013-10-27 15:26:00,61.3,44.0,30.03,SW,214,7.0,16.0,54,0.00,,,0.00,weatherlink.com 1.10,2013-10-27 19:26:00,
2013-10-27 15:42:00,61.3,45.0,30.03,SSW,199,2.0,6.0,55,0.00,,,0.00,weatherlink.com 1.10,2013-10-27 19:42:00,
2013-10-27 15:56:00,60.9,45.0,30.03,WNW,301,1.0,13.0,57,0.00,,,0.00,weatherlink.com 1.10,2013-10-27 19:56:00,
2013-10-27 16:11:00,60.9,45.0,30.04,South,176,4.0,12.0,56,0.00,,,0.00,weatherlink.com 1.10,2013-10-27 20:11:00,
2013-10-27 16:26:00,60.7,44.0,30.04,West,262,6.0,12.0,55,0.00,,,0.00,weatherlink.com 1.10,2013-10-27 20:26:00,
2013-10-27 16:41:00,60.3,44.0,30.04,East,101,0.0,6.0,56,0.00,,,0.00,weatherlink.com 1.10,2013-10-27 20:41:00,
2013-10-27 16:56:00,60.6,45.0,30.04,South,176,1.0,7.0,57,0.00,,,0.00,weatherlink.com 1.10,2013-10-27 20:56:00,
2013-10-27 17:11:00,60.9,45.0,30.04,SSW,193,7.0,8.0,56,0.00,,,0.00,weatherlink.com 1.10,2013-10-27 21:11:00,
2013-10-27 17:26:00,60.3,45.0,30.04,East,84,2.0,5.0,58,0.00,,,0.00,weatherlink.com 1.10,2013-10-27 21:26:00,
2013-10-27 17:41:00,60.0,45.0,30.04,SSW,207,2.0,6.0,58,0.00,,,0.00,weatherlink.com 1.10,2013-10-27 21:41:00,
2013-10-27 17:56:00,57.9,45.0,30.04,SW,233,3.0,7.0,62,0.00,,,0.00,weatherlink.com 1.10,2013-10-27 21:56:00,
2013-10-27 18:12:00,57.0,45.0,30.04,SSW,207,0.0,6.0,64,0.00,,,0.00,weatherlink.com 1.10,2013-10-27 22:12:00,
2013-10-27 18:26:00,55.8,45.0,30.04,SW,232,1.0,6.0,67,0.00,,,0.00,weatherlink.com 1.10,2013-10-27 22:26:00,
2013-10-27 18:41:00,55.1,45.0,30.05,SW,232,2.0,6.0,69,0.00,,,0.00,weatherlink.com 1.10,2013-10-27 22:41:00,
2013-10-27 18:56:00,55.2,45.0,30.05,SW,236,3.0,7.0,69,0.00,,,0.00,weatherlink.com 1.10,2013-10-27 22:56:00,
2013-10-27 19:11:00,55.3,45.0,30.05,WSW,241,4.0,7.0,69,0.00,,,0.00,weatherlink.com 1.10,2013-10-27 23:11:00,
2013-10-27 19:26:00,55.1,45.0,30.06,ENE,63,2.0,4.0,70,0.00,,,0.00,weatherlink.com 1.10,2013-10-27 23:26:00,
2013-10-27 19:41:00,54.9,46.0,30.06,WSW,247,1.0,4.0,71,0.00,,,0.00,weatherlink.com 1.10,2013-10-27 23:41:00,
2013-10-27 19:56:00,54.2,46.0,30.06,SSW,210,3.0,4.0,73,0.00,,,0.00,weatherlink.com 1.10,2013-10-27 23:56:00,
2013-10-27 20:11:00,54.0,46.0,30.07,SW,224,1.0,5.0,74,0.00,,,0.00,weatherlink.com 1.10,2013-10-28 00:11:00,
2013-10-27 20:26:00,53.6,46.0,30.07,SSE,162,0.0,5.0,75,0.00,,,0.00,weatherlink.com 1.10,2013-10-28 00:26:00,
2013-10-27 20:41:00,53.3,46.0,30.06,WSW,240,0.0,3.0,76,0.00,,,0.00,weatherlink.com 1.10,2013-10-28 00:41:00,
2013-10-27 20:56:00,52.9,46.0,30.07,SW,217,0.0,4.0,77,0.00,,,0.00,weatherlink.com 1.10,2013-10-28 00:56:00,
2013-10-27 21:11:00,52.2,46.0,30.07,WSW,238,0.0,2.0,79,0.00,,,0.00,weatherlink.com 1.10,2013-10-28 01:11:00,
2013-10-27 21:26:00,52.6,46.0,30.07,SSW,201,1.0,5.0,78,0.00,,,0.00,weatherlink.com 1.10,2013-10-28 01:26:00,
2013-10-27 21:41:00,52.5,46.0,30.07,SW,227,1.0,7.0,79,0.00,,,0.00,weatherlink.com 1.10,2013-10-28 01:41:00,
2013-10-27 21:56:00,52.5,47.0,30.07,SW,227,3.0,7.0,80,0.00,,,0.00,weatherlink.com 1.10,2013-10-28 01:56:00,
2013-10-27 22:11:00,52.4,46.0,30.08,SE,136,1.0,4.0,80,0.00,,,0.00,weatherlink.com 1.10,2013-10-28 02:11:00,
2013-10-27 22:26:00,52.5,47.0,30.08,WSW,246,1.0,6.0,80,0.00,,,0.00,weatherlink.com 1.10,2013-10-28 02:26:00,
2013-10-27 22:41:00,52.3,46.0,30.08,SW,229,2.0,5.0,80,0.00,,,0.00,weatherlink.com 1.10,2013-10-28 02:41:00,
2013-10-27 22:56:00,51.8,47.0,30.09,SW,233,0.0,7.0,82,0.00,,,0.00,weatherlink.com 1.10,2013-10-28 02:56:00,
2013-10-27 23:11:00,51.7,47.0,30.09,SW,236,1.0,5.0,83,0.00,,,0.00,weatherlink.com 1.10,2013-10-28 03:11:00,
2013-10-27 23:26:00,51.6,47.0,30.09,SW,224,0.0,2.0,83,0.00,,,0.00,weatherlink.com 1.10,2013-10-28 03:26:00,
2013-10-27 23:41:00,51.8,47.0,30.09,WSW,249,1.0,5.0,83,0.00,,,0.00,weatherlink.com 1.10,2013-10-28 03:41:00,
2013-10-27 23:56:00,52.1,47.0,30.09,West,271,1.0,4.0,82,0.00,,,0.00,weatherlink.com 1.10,2013-10-28 03:56:00,